Vorticity
3 2 2 4 4 4 9 9 8 8 8 9 8 7 7 7 6 5 5 8 11 13 15 16 17 16 17 18 17 21 19 17 18 18 16 15 12 12
2 3 3 4 3 10 10 9 9 8 7 8 7 7 7 6 7 9 12 14 15 16 15 16 18 18 19 15 19 14 15 16 13 11 10 8 8 6
3 3 4 3 10 10 9 8 8 8 6 6 6 6 6 9 12 13 14 16 15 19 21 21 21 18 15 16 14 15 11 10 9 8 8 7 7 6
3 5 1 11 11 10 9 8 8 7 7 7 6 7 11 12 12 14 16 18 20 20 21 18 15 15 13 12 9 7 7 10 12 13 14 15 15 14
5 -1 16 10 9 8 8 8 7 8 7 7 10 12 13 16 16 18 18 18 19 19 16 17 15 11 10 8 7 10 11 12 13 14 16 19 19 17
6 12 9 9 9 8 8 8 7 7 9 12 12 13 14 18 19 18 17 17 18 21 15 11 10 9 8 11 11 13 14 14 13 13 14 12 11 13
11 9 9 9 8 8 8 7 8 13 13 13 14 15 18 18 17 15 15 16 21 12 9 9 10 8 11 12 11 16 15 12 11 12 11 10 17 19
8 9 9 8 8 7 7 10 14 14 15 14 13 18 16 14 13 12 12 7 10 13 10 7 10 11 14 11 15 15 13 12 12 12 12 14 14 13
9 8 8 8 6 7 11 13 13 16 16 13 19 15 11 13 10 6 7 9 10 14 12 11 14 14 13 13 18 15 14 15 12 12 10 9 11 11
7 8 7 6 10 13 12 14 14 15 15 19 13 13 10 9 9 8 9 9 13 15 11 12 14 12 14 17 20 17 17 15 13 11 9 9 7 5
8 7 7 11 12 11 13 13 15 19 20 15 13 10 10 11 10 9 10 7 10 12 20 11 12 18 21 19 20 17 14 19 17 11 6 7 9 7
7 10 13 12 12 14 15 16 19 18 14 11 13 14 12 12 11 8 7 7 9 11 16 9 9 10 21 11 12 22 13 16 17 11 8 10 11 8
11 13 13 12 16 17 17 21 15 11 10 12 13 11 11 10 9 12 12 13 12 11 8 8 8 10 9 11 14 15 20 16 17 14 9 10 11 8
12 13 13 15 17 18 21 13 11 10 11 11 10 11 9 9 12 12 15 12 8 7 7 9 9 10 8 9 11 16 16 17 20 15 13 11 11 5
13 13 15 17 19 21 13 11 10 11 10 10 11 10 9 10 11 12 11 9 10 11 10 10 12 11 9 9 10 16 18 12 16 23 15 11 9 5
11 15 16 20 21 12 11 12 11 9 8 9 10 10 10 13 14 13 11 10 10 13 15 12 14 13 12 11 13 13 13 11 13 14 13 10 6 11
16 18 21 22 13 11 12 12 9 9 11 12 11 12 13 13 14 13 12 11 12 12 12 16 15 12 12 14 14 18 18 16 16 11 9 9 10 19
18 20 22 13 11 13 12 11 10 10 12 12 13 12 11 11 12 13 12 13 14 14 14 14 11 13 19 20 16 17 18 13 10 10 11 10 18 16
19 21 13 11 12 10 9 10 12 12 12 12 11 11 12 10 11 12 15 15 16 14 14 14 12 10 11 15 15 18 10 9 10 13 15 16 12 13
20 15 12 11 10 10 11 12 12 12 11 11 12 12 13 14 16 18 18 16 16 14 12 14 14 14 11 9 13 14 9 11 9 9 13 10 13 15
16 11 11 10 9 11 12 12 11 10 11 13 12 13 15 17 17 16 14 14 12 12 14 16 14 13 14 15 11 11 14 15 12 13 12 13 13 15
11 10 10 9 11 12 11 10 10 9 10 12 11 13 17 18 15 17 16 15 14 15 16 14 15 18 12 8 11 12 14 16 18 22 19 23 27 25
11 10 9 11 12 10 10 11 10 9 8 10 12 14 15 15 17 17 17 16 13 12 12 15 18 12 13 11 9 14 18 21 24 29 26 21 19 24
Height
3076 3074 3070 3066 3062 3057 3051 3045 3038 3030 3028 3030 3023 3020 3014 3008 3002 2994 2986 2980 2974 2968 2961 2955 2948 2943 2937 2933 2928 2925 2922 2920 2918 2917 2916 2916 2916 2915
3068 3065 3062 3057 3052 3047 3041 3035 3029 3021 3012 3011 3008 3003 2998 2993 2986 2978 2972 2964 2957 2951 2945 2939 2932 2927 2923 2918 2915 2912 2910 2909 2908 2906 2905 2904 2903 2904
3060 3057 3052 3047 3042 3036 3031 3025 3019 3012 3004 3000 2992 2987 2979 2973 2967 2960 2953 2947 2941 2937 2930 2926 2921 2914 2910 2907 2904 2902 2900 2899 2897 2895 2893 2892 2891 2891
3051 3047 3042 3037 3032 3026 3020 3014 3008 3002 2994 2987 2981 2973 2966 2958 2950 2942 2936 2931 2926 2922 2916 2912 2908 2903 2899 2896 2893 2890 2887 2886 2884 2882 2880 2880 2879 2878
3042 3037 3032 3026 3021 3015 3009 3003 2997 2991 2984 2974 2966 2959 2951 2945 2938 2931 2923 2919 2914 2910 2906 2901 2897 2893 2890 2886 2882 2878 2875 2872 2871 2869 2868 2867 2866 2865
3032 3027 3022 3016 3010 3004 2997 2991 2984 2977 2970 2961 2952 2944 2937 2931 2924 2915 2912 2908 2905 2900 2896 2892 2888 2885 2881 2876 2872 2867 2863 2860 2859 2857 2856 2856 2855 2855
3022 3017 3011 3005 2999 2992 2985 2978 2971 2964 2956 2947 2938 2931 2924 2918 2912 2907 2901 2897 2897 2891 2885 2882 2878 2874 2871 2866 2861 2857 2852 2850 2848 2847 2845 2845 2844 2844
3013 3007 3002 2995 2989 2982 2974 2966 2959 2951 2942 2933 2926 2919 2913 2908 2903 2897 2892 2887 2883 2886 2874 2868 2867 2862 2860 2856 2852 2846 2842 2839 2837 2836 2835 2834 2834 2835
3003 2997 2992 2985 2977 2970 2963 2955 2948 2942 2933 2923 2916 2911 2905 2901 2895 2889 2883 2877 2874 2872 2862 2853 2857 2851 2849 2845 2841 2837 2832 2829 2826 2826 2825 2824 2824 2825
2992 2986 2979 2973 2966 2958 2950 2941 2935 2930 2921 2916 2910 2905 2898 2893 2886 2879 2874 2867 2864 2863 2856 2842 2845 2839 2837 2835 2831 2827 2823 2819 2816 2815 2814 2814 2814 2814
2983 2976 2969 2962 2954 2946 2937 2931 2925 2919 2914 2909 2904 2897 2891 2886 2880 2872 2868 2861 2856 2854 2852 2836 2834 2827 2824 2823 2821 2818 2814 2810 2807 2806 2805 2804 2804 2803
2975 2967 2960 2951 2943 2936 2927 2920 2914 2910 2906 2902 2898 2893 2886 2881 2876 2869 2861 2854 2848 2842 2843 2829 2824 2819 2811 2811 2811 2808 2805 2801 2798 2797 2796 2794 2793 2791
2963 2957 2949 2940 2932 2925 2918 2912 2906 2902 2898 2893 2889 2884 2880 2875 2870 2864 2857 2849 2843 2837 2834 2823 2816 2813 2806 2798 2800 2798 2795 2792 2788 2788 2786 2785 2783 2780
2950 2943 2935 2929 2922 2916 2910 2905 2900 2896 2891 2887 2882 2878 2872 2868 2863 2856 2850 2844 2838 2831 2826 2820 2810 2806 2798 2793 2788 2787 2785 2781 2778 2777 2776 2775 2773 2770
2941 2934 2926 2920 2914 2909 2904 2899 2894 2890 2885 2880 2875 2870 2865 2859 2854 2848 2844 2838 2833 2828 2821 2813 2805 2799 2793 2786 2778 2776 2772 2771 2769 2766 2765 2764 2762 2759
2933 2926 2918 2912 2907 2903 2899 2894 2889 2884 2878 2873 2868 2863 2858 2852 2847 2841 2835 2829 2824 2821 2816 2807 2799 2791 2785 2779 2772 2767 2765 2758 2758 2756 2753 2752 2750 2747
2923 2917 2912 2907 2903 2899 2895 2890 2885 2880 2875 2870 2864 2858 2852 2846 2840 2834 2827 2821 2814 2807 2804 2800 2792 2785 2779 2771 2766 2763 2757 2753 2750 2746 2742 2739 2740 2735
2916 2910 2905 2902 2898 2895 2891 2887 2881 2876 2870 2865 2859 2852 2845 2839 2832 2827 2820 2813 2806 2801 2795 2789 2783 2777 2773 2768 2759 2753 2751 2744 2741 2738 2734 2726 2725 2723
2909 2905 2901 2898 2895 2890 2886 2882 2878 2872 2867 2861 2854 2847 2840 2833 2826 2819 2813 2807 2801 2795 2791 2784 2776 2769 2761 2757 2757 2749 2739 2736 2732 2729 2723 2717 2710 2710
2904 2901 2898 2895 2891 2887 2883 2879 2874 2869 2863 2857 2851 2843 2835 2827 2820 2814 2808 2801 2795 2790 2785 2780 2773 2766 2758 2750 2743 2744 2738 2729 2722 2715 2711 2706 2701 2697
2900 2898 2895 2892 2888 2884 2880 2876 2871 2866 2860 2854 2847 2839 2831 2824 2817 2810 2804 2799 2792 2787 2781 2775 2769 2763 2755 2748 2741 2736 2732 2726 2716 2707 2700 2694 2690 2685
2897 2895 2893 2890 2886 2882 2878 2874 2870 2865 2859 2852 2844 2837 2829 2822 2814 2808 2801 2795 2790 2783 2778 2772 2764 2758 2752 2744 2737 2730 2723 2718 2713 2705 2697 2689 2681 2673
2895 2893 2890 2887 2884 2881 2877 2873 2868 2862 2856 2849 2842 2835 2828 2820 2814 2806 2800 2794 2787 2781 2774 2768 2763 2756 2750 2743 2735 2726 2719 2712 2705 2700 2694 2687 2679 2671